Overview Statistics Trail Chart Weather Telemetry Raw packets
 

This is the latest recevied weather packets stored in our database for station/object N4BBA. If no packets are shown the sender has not sent any weather packets the latest 10 day(s).

<< 31 32 33 34 35 36 37 >>
Time Temp. Humidity Pressure Rain* Wind** Luminosity Snow
1777496013 23.89° C 71% 1007.7 hPa 0 mm - 128 W/m² -
1777495710 23.89° C 70% 1007.9 hPa 0 mm - 130 W/m² -
1777495406 23.89° C 70% 1007.8 hPa 0 mm - 238 W/m² -
1777495102 24.44° C 71% 1008.2 hPa 0 mm - 336 W/m² -
1777494800 23.89° C 72% 1008.2 hPa 0 mm - 278 W/m² -
1777494496 23.89° C 72% 1008.4 hPa 0 mm - 258 W/m² -
1777494194 24.44° C 70% 1008.3 hPa 0 mm - 286 W/m² -
1777493891 24.44° C 72% 1008.3 hPa 0 mm - 393 W/m² -
1777493589 23.33° C 73% 1008.5 hPa 0 mm - 424 W/m² -
1777493286 22.78° C 74% 1008.5 hPa 0 mm - 149 W/m² -
1777492982 22.78° C 73% 1008.7 hPa 0 mm - 156 W/m² -
1777492679 22.78° C 73% 1008.8 hPa 0 mm - 140 W/m² -
1777492379 23.33° C 72% 1009.1 hPa 0 mm - 101 W/m² -
1777492077 23.33° C 72% 1008.8 hPa 0 mm - 189 W/m² -
1777491773 23.33° C 71% 1009 hPa 0 mm - 188 W/m² -
1777491470 23.89° C 71% 1008.9 hPa 0 mm - 238 W/m² -
1777491167 23.89° C 71% 1009.1 hPa 0 mm - 324 W/m² -
1777490863 23.89° C 72% 1009.3 hPa 0 mm - 342 W/m² -
1777490559 23.33° C 73% 1009.4 hPa 0 mm - 428 W/m² -
1777490255 23.33° C 73% 1009.5 hPa 0 mm - 387 W/m² -
1777489953 22.78° C 74% 1009.6 hPa 0 mm - 422 W/m² -
1777489651 22.78° C 75% 1009.6 hPa 0 mm - 392 W/m² -
1777489352 22.22° C 75% 1009.7 hPa 0 mm - 238 W/m² -
1777489044 22.78° C 74% 1009.8 hPa 0 mm - 149 W/m² -
1777488741 22.78° C 74% 1010 hPa 0 mm - 217 W/m² -

* Rain latest hour (hover to see other rain measurements)
** Current wind speed in m/s (hover to see current wind gust speed)